Regional Weather Roundup
Issued by NWS Midland/Odessa, TX

Home | Current Version | Previous Version | Text Only | Print | Product List | Glossary On
Versions: 1 2 3 4 5 6 7 8 9 10 11 12 13 14 15 16 17 18 19 20 21 22 23 24 25 26 27 28 29 30 31 32 33 34 35 36 37 38 39 40 41 42 43 44 45 46 47 48 49 50
000
ASUS44 KMAF 041210
RWRMAF
MIDLAND AREA WEATHER ROUNDUP
NATIONAL WEATHER SERVICE MIDLAND TX
700 AM CDT FRI SEP 04 2015

...IN SOUTHWEST TEXAS AND SOUTHEAST NEW MEXICO...

CITY           SKY/WX    TMP DP  RH WIND       PRES   REMARKS
ALPINE         CLEAR     62  52  70 W8        30.08S
ANDREWS        FAIR      68  55  62 S6        29.98R
ARTESIA        PTCLDY    70  50  49 E3        29.96R
BIG SPRING     CLEAR     70  58  65 SE9       29.97S
CARLSBAD       CLEAR     69  49  48 S7        29.92R
DRYDEN           N/A     73  65  75 W6        29.91R
FORT STOCKTON  CLEAR     70  57  63 S12       29.94R
GUAD PASS      CLEAR     70  49  47 SW6       30.10R
HOBBS          CLEAR     64  52  63 CALM      29.99R
MARFA          CLEAR     54  46  76 N6        30.07R
MIDLAND AIRPK  CLEAR     73  56  55 SE7       29.96S
MIDLAND INTL   CLEAR     69  54  58 SE7       29.95R
ODESSA         CLEAR     72  57  59 S6        29.96R
PECOS          CLEAR     67  52  59 E5        29.91R
PRESIDIO       FAIR      77  55  45 N9        29.92R
SEMINOLE       CLEAR     64  52  63 CALM      29.99R
SNYDER         CLEAR     70  61  73 S6        29.96R
WINK           CLEAR     69  53  56 E7        29.93R
$$
...OTHER STATIONS IN TEXAS...

CITY           SKY/WX    TMP DP  RH WIND       PRES   REMARKS
ABILENE        CLEAR     73  65  75 S8        29.94S
AMARILLO       MOCLDY    71  55  56 S13       29.98R
AUSTIN         CLOUDY    75  74  96 S3        29.92S
BROWNSVILLE    CLEAR     78  76  93 SE8       29.87R
CORPUS CHRISTI PTCLDY    76  74  93 SE3       29.88S
DALLAS FTW     PTCLDY    78  70  76 S7        29.92R
DEL RIO        CLEAR     77  69  76 E10       29.88R
EL PASO        MOCLDY    74  55  51 E6        29.97S
HOUSTON INT    PTCLDY    75  74  96 N3        29.93R
LUBBOCK        PTCLDY    65  57  75 SE7       29.97R
SAN ANGELO     CLEAR     72  64  76 CALM      29.93R
SAN ANTONIO    CLOUDY    79  73  82 SE8       29.92F
WACO           CLEAR     76  71  85 S8        29.93R
WICHITA FALLS  NOT AVBL
$$
...OTHER LOCATIONS IN NEW MEXICO...

CITY           SKY/WX    TMP DP  RH WIND       PRES   REMARKS
ALAMAGORDO     MOCLDY    68  50  52 SE5       30.01R
ALBUQUERQUE    CLOUDY    65  49  56 SE6       30.08S
CANNON AFB     PTCLDY    69  51  53 SW3       30.00S
CLOVIS         PTCLDY    63  50  63 S3        30.02R
HOLLOMAN AFB   CLOUDY    71  53  52 S7        29.99R
ROSWELL        PTCLDY    67  49  52 S6        29.95S
RUIDOSO        MOCLDY    61  46  59 W5        30.19S
SANTA FE       CLOUDY    60  45  57 NW3       30.13S
TRUTH OR CONSE CLOUDY    67  56  67 W8        30.04R
TUCUMCARI      CLEAR     71  49  45 SW10      29.96S
$$




USA.gov is the U.S. government's official web portal to all federal, state and local government web resources and services.